Location: Edinburgh
(55.9500°N, 3.1600°W)
Time: 12:58:58
(UTC+01:00)

AO-91 - Pass Details

Date: 28 May 2024
Orbit: 442 x 732 km, 97.6° (Epoch: 16 June)

Event Time Altitude Azimuth Distance (km) Brightness Sun altitude
Rises 22:49:35 0° 16° (NNE) 2,900 ? -6.9°
Reaches altitude 10° 22:51:44 10° 19° (NNE) 2,034 ? -7.1°
Maximum altitude 22:56:11 65° 102° (ESE) 741 ? -7.4°
Drops below altitude 10° 23:00:56 10° 185° (S) 2,171 ? -7.7°
Enters shadow 23:02:25 - 187° (S) 2,766 ? -7.8°
